Powrót do katalogu

COSMOS 2491 DEB

AktywnyPO
NORAD 47111·DEBRIS·🇷🇺 Russia

Wystrzelony Dec 25, 2013 z Plesetsk Cosmodrome

Loading…

Następne Przeloty (najbliższe 24 godziny)

TLE

NieaktualneSource: Space-Track

Epoka: Aug 15, 2026, 08:44 UTC

1 47111U 13076AG  26227.36406538  .00000458  00000-0  25485-2 0  9998
2 47111  82.4525 102.2812 0105103   1.6004 358.5401 12.59486085146701

Śledź COSMOS 2491 DEB w czasie rzeczywistym z AllMySat

Download on the App Store